Weather History for New Bedford, MA

Change the Weather History Date:

Wednesday, December 12, 2012

  Actual Average Record
Temperature  
Mean Temperature 34 °F -  
Max Temperature 39 °F 40 °F 61 °F (2008)
Min Temperature 28 °F 28 °F -4 °F (1988)
Degree Days  
Heating Degree Days 32    
Moisture  
Dew Point 23 °F    
Average Humidity 67    
Maximum Humidity 92    
Minimum Humidity 46    
Precipitation  
Precipitation 0.00 in - - ()
Sea Level Pressure  
Sea Level Pressure 30.33 in    
Wind  
Wind Speed 4 mph (NW)    
Max Wind Speed 12 mph    
Max Gust Speed -    
Visibility 10 miles    
Events      
Averages and records for this station are not official NWS values.
T = Trace of Precipitation, MM = Missing Value Source: NWS Daily Summary

Daily Weather History Graph

Daily Weather History Graph

Search for Another Location

Airport:

Trip Planner

Search our weather history database for the weather conditions in past years. The results will help you decide how hot, cold, wet, or windy it might be!

Date:

Astronomy

Dec. 12, 2012 Rise Set
Actual Time 7:01 AM EST 4:13 PM EST
Civil Twilight 6:30 AM EST 4:45 PM EST
Nautical Twilight 5:55 AM EST 5:20 PM EST
Astronomical Twilight 5:21 AM EST 5:53 PM EST
Moon 6:02 AM EST (12/12) 3:47 PM EST (12/12)
Length of Visible Light 10h 14m
Length of Day
9h 11m
Waning Crescent, 1% of the Moon is Illuminated
Dec 12
Waning Crescent
Dec 13
New
Dec 20
First Quarter
Dec 28
Full
Jan 4
Last Quarter

Hourly Weather History & Observations

Time (EST) Temp. Windchill Dew Point Humidity Pressure Visibility Wind Dir Wind Speed Gust Speed Precip Events Conditions
12:53 AM 35.1 °F 26.9 °F 21.0 °F 57% 30.17 in 10.0 mi WNW 11.5 mph - N/A   Clear
1:53 AM 34.0 °F 29.8 °F 21.0 °F 59% 30.19 in 10.0 mi NW 4.6 mph - N/A   Clear
2:53 AM 32.0 °F - 21.0 °F 64% 30.21 in 10.0 mi Calm Calm - N/A   Clear
3:53 AM 30.9 °F - 21.0 °F 67% 30.22 in 10.0 mi Calm Calm - N/A   Clear
4:53 AM 32.0 °F 28.7 °F 19.9 °F 61% 30.25 in 10.0 mi NW 3.5 mph - N/A   Clear
5:53 AM 30.9 °F 27.5 °F 21.0 °F 67% 30.27 in 10.0 mi NW 3.5 mph - N/A   Clear
6:53 AM 30.0 °F - 21.0 °F 69% 30.31 in 10.0 mi Calm Calm - N/A   Clear
7:53 AM 30.9 °F - 21.0 °F 67% 30.33 in 10.0 mi Calm Calm - N/A   Clear
8:53 AM 34.0 °F 29.8 °F 21.0 °F 59% 30.35 in 10.0 mi Variable 4.6 mph - N/A   Clear
9:53 AM 35.1 °F 29.3 °F 21.0 °F 57% 30.35 in 10.0 mi North 6.9 mph - N/A   Clear
10:53 AM 36.0 °F 33.3 °F 21.9 °F 57% 30.35 in 10.0 mi Variable 3.5 mph - N/A   Clear
11:53 AM 37.9 °F 35.5 °F 21.9 °F 53% 30.34 in 10.0 mi Variable 3.5 mph - N/A   Clear
12:53 PM 39.0 °F 34.8 °F 21.0 °F 49% 30.33 in 10.0 mi NNW 5.8 mph - N/A   Clear
1:53 PM 39.9 °F 37.8 °F 21.0 °F 47% 30.33 in 10.0 mi Variable 3.5 mph - N/A   Clear
2:53 PM 39.0 °F - 19.9 °F 46% 30.34 in 10.0 mi Calm Calm - N/A   Clear
3:53 PM 37.9 °F - 21.0 °F 51% 30.36 in 10.0 mi Calm Calm - N/A   Clear
4:53 PM 34.0 °F - 24.1 °F 67% 30.37 in 10.0 mi Calm Calm - N/A   Clear
5:53 PM 30.0 °F - 25.0 °F 82% 30.38 in 10.0 mi Calm Calm - N/A   Clear
6:53 PM 30.0 °F - 26.1 °F 85% 30.40 in 10.0 mi Calm Calm - N/A   Clear
7:53 PM 28.9 °F - 26.1 °F 89% 30.39 in 10.0 mi Calm Calm - N/A   Clear
8:53 PM 28.9 °F - 26.1 °F 89% 30.40 in 10.0 mi Calm Calm - N/A   Clear
9:53 PM 28.9 °F - 26.1 °F 89% 30.43 in 10.0 mi Calm Calm - N/A   Clear
10:53 PM 28.0 °F - 26.1 °F 92% 30.41 in 9.0 mi Calm Calm - N/A   Clear
11:53 PM 28.0 °F - 26.1 °F 92% 30.41 in 10.0 mi Calm Calm - N/A   Clear